Location: Ajisawe
(8.4333°N, 4.3833°E)
Time: 21:29:02
(UTC+00:00)

Vanguard 2 Rocket - Pass Details

Date: 19 April 2021
Orbit: 554 x 3326 km, 32.9° (Epoch: 16 May)

Event Time Altitude Azimuth Distance (km) Brightness Sun altitude
Rises 08:46:16 0° 212° (SSW) 4,402 10.1 46.8°
Reaches altitude 10° 08:48:59 10° 204° (SSW) 3,741 9.9 47.4°
Maximum altitude 08:58:41 42° 137° (SE) 2,928 10.5 49.8°
Drops below altitude 10° 09:14:12 10° 73° (ENE) 5,910 11.8 53.6°
Sets 09:19:47 0° 67° (ENE) 7,162 12.0 55.0°
